Regional Weather Roundup
Issued by NWS

Home | Current Version | Previous Version | Text Only | Print | Product List | Glossary On
Versions: 1 2 3 4 5 6 7 8 9 10 11 12 13 14 15 16 17 18 19 20 21 22 23 24 25 26 27 28 29 30 31 32 33 34 35 36 37 38 39 40 41 42 43 44 45 46 47 48 49 50
000
ASUS44 KFWD 031001
RWRTX
NORTH TEXAS HOURLY WEATHER ROUNDUP
NATIONAL WEATHER SERVICE FORT WORTH TX
500 AM CDT WED JUN 03 2015

NOTE: "FAIR" INDICATES FEW OR NO CLOUDS BELOW 12,000 FEET WITH NO
SIGNIFICANT WEATHER AND/OR OBSTRUCTIONS TO VISIBILITY.

TXZ118-119-031100-
DALLAS/FORT WORTH METROPLEX

CITY           SKY/WX    TMP DP  RH WIND       PRES   REMARKS
DFW AIRPORT    CLEAR     69  64  84 SE6       29.90F
DALLAS LOVE    CLEAR     73  65  75 SE12      29.91F
FTW MEACHAM    CLEAR     72  63  73 SE9       29.91S
DAL-EXECUTIVE  CLEAR     70  64  81 SE6       29.92S
FTW-ALLIANCE   CLEAR     69  64  84 S6        29.91S
FTW-NAS-JRB    CLEAR     74  63  68 S9        29.91S
ARLINGTON      CLEAR     71  63  75 CALM      29.92S
GRAND PRAIRIE  CLEAR     72  64  76 CALM      29.93R
ADDISON        CLEAR     73  67  82 SE9       29.93S
MESQUITE       CLEAR     68  66  91 SE5       29.93S
LANCASTER      CLEAR     67  64  90 CALM      29.93F
$$

TXZ091>094-102>105-117-120-121-131>134-031100-
NORTH CENTRAL TEXAS

CITY           SKY/WX    TMP DP  RH WIND       PRES   REMARKS
SHRMAN/DENISON CLEAR     71  66  83 SE12      29.93S
GAINESVILLE    CLEAR     67  64  91 SE6       29.93S
BRIDGEPORT     CLEAR     71  64  80 S6        29.92S
DECATUR        CLEAR     68  60  76 SE6       29.92S
DENTON         CLEAR     69  64  84 S3        29.91S
MCKINNEY       CLEAR     69  65  86 SE5       29.92S
ROCKWALL       CLEAR     69  64  85 SE7       29.92S
TERRELL          N/A    N/A N/A N/A MISG      29.93S
WAXAHACHIE     CLEAR     68  65  92 CALM      29.94S
CLEBURNE       CLEAR     70  66  88 SE7       29.93S
GRANBURY       CLEAR     72  65  79 SE6       29.92S
$$

TXZ083>090-098>101-113>116-127>130-139>142-154-155-031100-
WESTERN NORTH TEXAS

CITY           SKY/WX    TMP DP  RH WIND       PRES   REMARKS
WICHITA FALLS  CLEAR     70  65  84 S13       29.87S
WF-KICKAPOO    CLEAR     72  66  82 S10       29.89S
VERNON         CLEAR     70  62  75 S8        29.87S
ABILENE        CLEAR     71  61  70 S15       29.91S
ABILENE-DYESS  CLEAR     70  61  71 S7        29.89S
BRECKENRIDGE   CLEAR     71  63  77 S7        29.90S
MINERAL WELLS  CLEAR     69  65  86 SE9       29.89F
STEPHENVILLE   CLEAR     67  63  89 CALM      29.94S
COMANCHE       CLEAR     69  65  87 S6        29.92S
COLEMAN        CLEAR     65  64  96 S5        29.93S
BRADY          CLEAR     66  64  94 S5        29.93S
$$

TXZ143>147-156>162-174-175-031100-
CENTRAL TEXAS

CITY           SKY/WX    TMP DP  RH WIND       PRES   REMARKS
WACO           CLEAR     69  64  84 SE5       29.91F
WACO-MCGREGOR  CLEAR     68  63  83 S6        29.93R
CORSICANA      CLEAR     72  64  76 SE7       29.94S
MEXIA          CLEAR     68  64  87 SE15      29.92S
HEARNE         CLEAR     68  65  91 CALM      29.93S
TEMPLE         CLEAR     68  63  83 SE7       29.91S
KILLEEN        CLEAR     69  65  86 VRB6      29.91S
KILLEEN-SKYLRK CLEAR     68  61  77 S5        29.92S
FORT HOOD      CLEAR     69  64  84 S3        29.91S
HAMILTON       CLEAR     67  67 100 SE7       29.94S
LAMPASAS       CLEAR     66  64  94 CALM      29.92S
$$

TXZ095>097-106>112-122>126-135>138-148>153-164>167-031100-
EAST TEXAS

CITY           SKY/WX    TMP DP  RH WIND       PRES   REMARKS
PARIS          CLEAR     66  61  82 E5        29.95R
GILMER         CLEAR    N/A N/A N/A CALM      29.95S
MINEOLA        CLEAR     64  64 100 CALM      29.95S FOG
TYLER          CLEAR     67  62  84 SE6       29.94S
LONGVIEW       CLEAR     68  64  87 SE3       29.94S
MARSHALL       CLEAR     68  66  93 CALM      29.97S
ATHENS         CLEAR     64  63  94 CALM      29.93S
PALESTINE      CLEAR     69  64  82 CALM      29.95R
JACKSONVILLE   CLEAR     69  62  76 CALM      29.96S
HENDERSON      CLEAR     64  64  98 MISG      29.96S
NACOGDOCHES    CLEAR     63  61  94 CALM      29.94S
LUFKIN         CLEAR     70  64  81 CALM      29.94S
$$

SUPPLEMENTAL OBSERVATIONS (CENTRAL)

CITY           SKY/WX    TMP DP  RH WIND       PRES   REMARKS
$$

SUPPLEMENTAL OBSERVATIONS (WEST)

CITY           SKY/WX    TMP DP  RH WIND       PRES   REMARKS
$$

SUPPLEMENTAL OBSERVATIONS (EAST)

CITY           SKY/WX    TMP DP  RH WIND       PRES   REMARKS
$$

SUPPLEMENTAL OBSERVATIONS ARE A COLLECTION OF AUTOMATED INSTRUMENTS
THAT ARE MAINTAINED BY A VARIETY OF FEDERAL AND STATE AGENCIES.
CERTAIN ELEMENTS...SUCH AS HUMIDITY VALUES AND SUSTAINED WIND
SPEEDS...MAY BE APPROXIMATED.




USA.gov is the U.S. government's official web portal to all federal, state and local government web resources and services.